Des Moines, IA

10:18 AM CST on January 17, 2017 (GMT -0600)
Des Moines International

Weather History for KDSM - October, 2010

Change the Weather History Date:

Sunday, October 31, 2010

  Actual Average Record
Temperature  
Mean Temperature 45 °F 47 °F  
Max Temperature 53 °F 57 °F 86 °F (1950)
Min Temperature 37 °F 38 °F 18 °F (1949)
Degree Days  
Heating Degree Days 20 18  
Month to date heating degree days 243 384  
Since 1 July heating degree days 296 484  
Cooling Degree Days 0 0  
Month to date cooling degree days 24 14  
Year to date cooling degree days 1379 1066  
Moisture  
Dew Point 32 °F    
Average Humidity 63    
Maximum Humidity 82    
Minimum Humidity 44    
Precipitation  
Precipitation 0.00 in 0.08 in 1.87 in (1922)
Month to date precipitation 0.60 2.64  
Year to date precipitation 48.71 32.41  
Snow  
Snow 0.00 in 0.00 in T in (1991)
Month to date snowfall T 0.4  
Since 1 July snowfall T 0.4  
Since 1 September snowfall T 0.4  
Snow Depth 0.00 in    
Sea Level Pressure  
Sea Level Pressure 30.19 in    
Wind  
Wind Speed 8 mph (ENE)    
Max Wind Speed 15 mph    
Max Gust Speed 20 mph    
Visibility 10 miles    
Events      
T = Trace of Precipitation, MM = Missing Value Source: NWS Daily Summary

Daily Weather History Graph

Daily Weather History Graph

Search for Another Location

Airport or City:

Trip Planner

Search our weather history database for the weather conditions in past years. The results will help you decide how hot, cold, wet, or windy it might be!

Date:

Astronomy

Oct. 31, 2010 Rise Set
Actual Time 7:45 AM CDT 6:10 PM CDT
Civil Twilight 7:16 AM CDT 6:39 PM CDT
Nautical Twilight 6:43 AM CDT 7:12 PM CDT
Astronomical Twilight 6:11 AM CDT 7:44 PM CDT
Moon 1:06 AM CDT (10/31) 2:51 PM CDT (10/31)
Length of Visible Light 11h 22m
Length of Day
10h 25m
Last Quarter, 37% of the Moon is Illuminated
Oct 31
Last Quarter
Nov 5
New
Nov 13
First Quarter
Nov 21
Full
Nov 28
Last Quarter

Hourly Weather History & Observations

Time (CDT) Temp. Windchill Dew Point Humidity Pressure Visibility Wind Dir Wind Speed Gust Speed Precip Events Conditions
12:54 AM 44.1 °F 40.8 °F 35.1 °F 71% 30.08 in 10.0 mi NNE 5.8 mph - N/A   Clear
1:54 AM 42.1 °F 37.7 °F 34.0 °F 73% 30.10 in 10.0 mi NNE 6.9 mph - N/A   Clear
2:54 AM 41.0 °F 35.8 °F 34.0 °F 76% 30.10 in 10.0 mi NNE 8.1 mph - N/A   Clear
3:54 AM 39.0 °F 34.0 °F 32.0 °F 76% 30.11 in 10.0 mi NE 6.9 mph - N/A   Clear
4:54 AM 37.9 °F 32.7 °F 32.0 °F 79% 30.12 in 10.0 mi NNE 6.9 mph - N/A   Clear
5:54 AM 37.9 °F 32.1 °F 32.0 °F 79% 30.13 in 10.0 mi NE 8.1 mph - N/A   Mostly Cloudy
6:54 AM 37.9 °F 32.7 °F 32.0 °F 79% 30.14 in 10.0 mi ENE 6.9 mph - N/A   Mostly Cloudy
7:54 AM 39.0 °F 34.0 °F 32.0 °F 76% 30.17 in 10.0 mi ENE 6.9 mph - N/A   Mostly Cloudy
8:54 AM 39.9 °F 34.5 °F 32.0 °F 73% 30.19 in 10.0 mi ENE 8.1 mph - N/A   Mostly Cloudy
9:54 AM 43.0 °F 37.2 °F 33.1 °F 68% 30.22 in 10.0 mi East 10.4 mph - N/A   Mostly Cloudy
10:54 AM 46.0 °F 40.2 °F 34.0 °F 63% 30.22 in 10.0 mi East 12.7 mph - N/A   Scattered Clouds
11:54 AM 50.0 °F - 34.0 °F 54% 30.23 in 10.0 mi East 9.2 mph - N/A   Overcast
12:54 PM 51.1 °F - 34.0 °F 52% 30.22 in 10.0 mi SE 11.5 mph - N/A   Overcast
1:54 PM 50.0 °F - 33.1 °F 52% 30.19 in 10.0 mi East 11.5 mph - N/A   Overcast
2:54 PM 52.0 °F - 32.0 °F 47% 30.18 in 10.0 mi East 9.2 mph 18.4 mph N/A   Overcast
3:54 PM 52.0 °F - 32.0 °F 47% 30.19 in 10.0 mi East 10.4 mph 18.4 mph N/A   Overcast
4:54 PM 51.1 °F - 32.0 °F 48% 30.19 in 10.0 mi East 9.2 mph - N/A   Overcast
5:54 PM 51.1 °F - 30.9 °F 46% 30.21 in 10.0 mi East 5.8 mph - N/A   Overcast
6:54 PM 50.0 °F - 30.0 °F 46% 30.22 in 10.0 mi East 6.9 mph - N/A   Overcast
7:54 PM 48.9 °F - 28.9 °F 46% 30.23 in 10.0 mi East 4.6 mph - N/A   Overcast
8:54 PM 48.0 °F - 28.0 °F 46% 30.25 in 10.0 mi East 5.8 mph - N/A   Overcast
9:54 PM 46.9 °F - 27.0 °F 46% 30.27 in 10.0 mi East 6.9 mph - N/A   Mostly Cloudy
10:54 PM 46.9 °F - 27.0 °F 46% 30.28 in 10.0 mi East 8.1 mph - N/A   Overcast
11:54 PM 45.0 °F 40.6 °F 27.0 °F 49% 30.28 in 10.0 mi ENE 8.1 mph - N/A   Mostly Cloudy